User: anonymous   Login
Location: *
(43.9905°S, 176.4941°W)
Time: 14:05:55
(UTC+00:00)
Language:

Aureole 3 Rocket - Orbit

View from above orbital plane
View from above orbital plane
View from above satellite
View from above satellite

Ground track
Ground track

The orbit data is extracted from the following two-line orbital elements,

1 12849U 81094B   20048.76870571  .00000123  00000-0  10356-4 0  9996
2 12849  82.4946 137.8121 0900180 310.9453  41.7050 13.50610521873598
Epoch (UTC): 17 February 2020 18:26:56
Eccentricity: 0.0900180
inclination: 82.4946°
perigee height: 399 km
apogee height: 1740 km
right ascension of ascending node: 137.8121°
argument of perigee: 310.9453°
revolutions per day: 13.50610521
mean anomaly at epoch: 41.7050°
orbit number at epoch: 87359

The dashed part of the orbit path shows where the satellite is in the earth's shadow,  

DLR